星链-36297(STARLINK-36297)

导读

STARLINK-36297是美国太空探索技术公司(SpaceX)于2026年2月2日发射的星链(Starlink)系列卫星,隶属于SpaceX打造的全球卫星互联网星座项目。星链计划旨在构建近地轨道通信网络,为全球提供宽带互联网接入服务,已扩展至航空、航运、应急通信等多个领域。该卫星的发射进一步推进了星链星座的部署进程,助力SpaceX完善全球卫星通信网络布局。

基本信息
目录编号:
67671
目录名称:
STARLINK-36297
国际标识:
2026-022Z
轨道中心:
EARTH
卫星名称:
星链-36297
卫星全名:
星链-36297(STARLINK-36297)
卫星状态:
在轨 (已飞行214 天)
发射日期:
2026-02-02 UTC
国别 :
美国 (US)
星等 :
--
轨道信息
数据来源 国际轨道数据 AOE轨道数据
星历时间 2026-09-03T10:12:02+0800
1天前
查看轨道信息
2026-09-01T22:00:00+0800
2天前
查看轨道信息
半长轴 6843.614km 6843.668km
偏心率 0.0001324 0.0001456
轨道倾角 97.284° 97.285°
近地点辐角 113.483° 92.882°
升交点赤经 277.972° 276.485°
平近点角 246.655° 225.853°
近地点 464.57km 464.534km
远地点 466.384km 466.528km
周期 93.905分钟 93.906分钟
每日圈数 15.334675 15.334494
详细信息
固有亮度:
5
最大亮度:
2.5
卫星平台:
Starlink V1.0
覆盖范围:
全球
运营商:
太空探索技术公司
运营商所在国:
美国
制造商(研发单位):
太空探索技术公司
制造商所在国:
美国
使用方式:
暂无
卫星简介
Starlink 计划是 SpaceX 推出的全球卫星互联网项目,通过发射低轨道卫星,为全球尤其是偏远地区提供高速、低延迟的互联网服务。自 2019 年起,Starlink 已部署数千颗卫星,旨在缩小全球数字鸿沟,推动互联网普及。该项目还为军事、航空等行业提供通信支持,带来广泛经济效益。
2D轨道图
3D轨道图
轨道高度分析图
轨道倾角分析图
轨道综合分析图
查看轨道综合分析图